Location: Central Falls
(41.8900°N, 71.3929°W)
Time: 20:01:55
(UTC+00:00)

Altair - Pass Details

Date: 07 December 2023
Orbit: 1501 x 1682 km, 47.2° (Epoch: 01 March)

Event Time Altitude Azimuth Distance (km) Brightness Sun altitude
Rises 10:06:16 0° 190° (S) 4,881 10.2 -20.4°
Reaches altitude 10° 10:10:15 10° 177° (S) 3,874 9.8 -19.7°
Maximum altitude 10:17:33 24° 128° (SE) 2,877 9.7 -18.3°
Drops below altitude 10° 10:24:39 10° 80° (E) 3,781 10.6 -17.1°
Sets 10:28:26 0° 67° (ENE) 4,739 10.9 -16.4°
